Location: Chrząstowo
(52.0654°N, 17.1290°E)
Time: 00:10:07
(UTC+01:00)

ISS - Pass Details

Date: 24 January 2019
Orbit: 403 x 411 km, 51.6° (Epoch: 17 February)

Event Time Altitude Azimuth Distance (km) Brightness Sun altitude
Rises 19:19:14 0° 238° (WSW) 2,332 0.8 -26.5°
Reaches altitude 10° 19:21:21 10° 231° (SW) 1,474 -0.4 -26.9°
Enters shadow 19:22:03 15° 227° (SW) 1,206 -1.0 -27.0°
